ARIANE 2 DEB, 28566

Orbit data source: Space-Track

ARIANE 2 DEB, 28566 is space debris in HEO originally from a launch on Fri, 27 Jan 1989 UTC launched from the French Guiana (FRGUI). Debris objects in space refer to the collection of defunct objects orbiting the Earth. Examples of debris include non-operational satellites, rocket bodies, and fragments generated from explosions, collisions, or faulty payload assembly.

Loading next visibility...
ARIANE 2 DEB details
Identifier
28566, 1989-006AH
Orbit
HEO
Last TLE update2 days ago
Origin
Flag of FRArianespace (FR)
ManufacturerEADS/LV
MissionSpacecraft
Bus & MotorUnknown
MassUnknown
Launch date (UTC)
1989-01-27 (36 years ago)
Launch vehicleUnknown
Launch site
French Guiana (FRGUI)
Object type
Payload
Rocket body
Debris
Shape & HBRUnknown
Radar Cross SectionMedium (>0.1 m² and <1 m²)

Expand to show TLE details & history

TLE from 2 days ago
0 ARIANE 2 DEB
1 28566U 89006AH  24359.47192052  .00000920  00000-0  13884-1 0  9999
2 28566   7.2470  25.4494 7130009 203.3091  93.7313  2.29036204100167
Epoch: 2024-12-24T11:19Z
Definitive object data (Epoch: 2024-12-24T11:19:33.932Z)
Latitude0.00002°
Longitude122.11817°
Altitude28,226.976 km
Speed2.577 km/s
True Right ascension01h 41m 57s
True Declination0° 00' 00"
Sunlit
Object was in daylight at TLE epoch
Visualization TLE readout
Latitude3.26205°
Longitude147.77281°
Altitude35,222.395 km
Speed1.664 km/s
Apparent Right ascension03h 39m 03s
Apparent Declination-2° 08' 36"
Sunlit
Object is in daylight
Visualization observer readout
Local Sidereal Time17:48:37
Azimuth46.231° ENE
Elevation-42.16°
Doppler factor1
Orbital elements
Apogee altitude35,275.084 km
Perigee altitude600.515 km
Semi-major axis24,315.936 km
Eccentricity0.7130009
Inclination7.247°
RAAN25.4494°
Arg. of periapsis203.3091°
True anomaly156.70967°
Mean anomaly93.7313°
Eccentric anomaly126.54944°
Mean motion0.57241 °/min
BSTAR0.013884
Orbital period628.92 mins
Loading maneuver chart data...
Loading historical data...
Loading historical data...
Loading historical data...
Loading historical data...
Loading historical data...
Loading historical data...
Loading historical data...

ARIANE 2 DEB Visibility forecast

Observer location: undefined°, undefined

Span
Click to sort rows by Start time (UTC) header in descending order
Start Az.
Max El. time (UTC)
Max El. Az.
Max El.
End time (UTC)
End Az.
577 mins2024-12-27 00:01:07.471Z211.055° SW2024-12-27 04:10:07.471Z193.634° SSW35.606°2024-12-27 09:38:07.471Z144.709° SSE
|